Location: *
(40.4000°N, 15.1200°E)
Time: 08:01:43
(UTC+00:00)

ATLAS 2AS CENTAUR R/B - Pass Details

Date: 09 April 2020
Orbit: 929 x 1283 km, 63.7° (Epoch: 21 May)

Event Time Altitude Azimuth Distance (km) Brightness Sun altitude
Rises 20:00:00 0° 316° (NW) 4,101 7.1 -26.2°
Reaches altitude 10° 20:03:15 10° 306° (NW) 3,079 6.1 -26.7°
Maximum altitude 20:09:10 27° 252° (WSW) 1,962 4.3 -27.5°
Enters shadow 20:13:01 17° 207° (SSW) 2,419 4.4 -28.1°
